Wichita Mid Continent Airport
KICT : now visible

Aeroporto :











RITROVATECI SU...

 
LOGIN :

Iscrizione | Disclaimer

   EN    FR    IT 

 









Sommario :    VFR   VFR Marginale   IFR   IFR Intensivo   IFR Molto Intensivo
Visibilità : 
Base nubi : 
>= 8 km
>= 3000ft
5 / 8 km
1000 / 3000 ft
1500m / 5 km
500 / 1000 ft
800 / 1500m
200 / 500 ft
< 800m
< 200 ft
Simboli :   Temporali  Nebbia  Neve Forte  Precipitazioni Forti  Vento > 20 kt






- Altitudine del aeroporto : 1333 ft
- Codice IATA : ICT


KICT - Wichita Mid Continent

ULTIMO METAR :
  • 210153Z 18011KT 10SM BKN190 03/M03 A2994 RMK AO2 SLP150 T00331028

METARs OBSOLETI :
  • 210053Z 18007KT 10SM FEW150 BKN180 04/M03 A2996 RMK AO2 SLP155 T00391028
  • 202353Z 19013KT 10SM FEW120 SCT150 BKN180 07/M03 A2994 RMK AO2 SLP148 T00671028 10100 20061 56013

TAF KICT
Valido dal 21 a 00 ore il 22 a 00 ore UTC


202320Z 2100/2124 20011KT P6SM BKN200
FM210300 VRB04KT P6SM SCT250
FM211100 01005KT P6SM SCT250
FIR KZKC / America del Nord



MetMap, La meteo Aeronautica in un colpo d'occhio ! - Copyright ORBIFLY Dicembre 2007 - Disclaimer

ORBIFLY MET'MAP TEAM :

Programmazione e sviluppo : Alexandra Zaïnal
Concezione : Baudouin d'Aumeries
Aiuto per la programmazione : Marc-Olivier Méhu
Supporto tecnico e logistico : Manuel Goepfert
Aiuto per la traduzione : Arnaldo La Scala

Contatto : metmap@orbifly.com




FONTI E CREDITI :

   NOAA       Earth
Advisory